Time,TemperatureF,DewpointF,PressureIn,WindDirection,WindDirectionDegrees,WindSpeedMPH,WindSpeedGustMPH,Humidity,HourlyPrecipIn,Conditions,Clouds,dailyrainin,SoftwareType,DateUTC
2013-04-26 00:03:00,50.7,36.0,30.28,South,173,1.0,7.0,57,0.00,,,0.00,weatherlink.com 1.10,2013-04-26 05:03:00,
2013-04-26 00:18:00,51.1,36.0,30.29,South,183,3.0,7.0,57,0.00,,,0.00,weatherlink.com 1.10,2013-04-26 05:18:00,
2013-04-26 00:33:00,51.8,36.0,30.29,SSW,208,8.0,11.0,55,0.00,,,0.00,weatherlink.com 1.10,2013-04-26 05:33:00,
2013-04-26 00:48:00,52.3,35.0,30.29,SW,221,6.0,13.0,53,0.00,,,0.00,weatherlink.com 1.10,2013-04-26 05:48:00,
2013-04-26 01:03:00,52.6,35.0,30.29,SSW,193,6.0,15.0,52,0.00,,,0.00,weatherlink.com 1.10,2013-04-26 06:03:00,
2013-04-26 01:18:00,52.6,36.0,30.29,SW,224,9.0,12.0,53,0.00,,,0.00,weatherlink.com 1.10,2013-04-26 06:18:00,
2013-04-26 01:33:00,52.5,36.0,30.29,SW,226,8.0,18.0,54,0.00,,,0.00,weatherlink.com 1.10,2013-04-26 06:33:00,
2013-04-26 01:48:00,52.2,36.0,30.28,South,188,5.0,15.0,54,0.00,,,0.00,weatherlink.com 1.10,2013-04-26 06:48:00,
2013-04-26 02:05:00,52.1,36.0,30.27,SW,217,6.0,16.0,55,0.00,,,0.00,weatherlink.com 1.10,2013-04-26 07:05:00,
2013-04-26 02:19:00,51.9,36.0,30.26,SSW,201,7.0,17.0,55,0.00,,,0.00,weatherlink.com 1.10,2013-04-26 07:19:00,
2013-04-26 02:34:00,51.7,36.0,30.26,SW,221,14.0,17.0,56,0.00,,,0.00,weatherlink.com 1.10,2013-04-26 07:34:00,
2013-04-26 02:49:00,51.8,36.0,30.25,WSW,238,13.0,17.0,56,0.00,,,0.00,weatherlink.com 1.10,2013-04-26 07:49:00,
2013-04-26 03:04:00,51.7,37.0,30.25,SW,221,5.0,18.0,57,0.00,,,0.00,weatherlink.com 1.10,2013-04-26 08:04:00,
2013-04-26 03:19:00,51.7,37.0,30.25,SSW,197,6.0,14.0,58,0.00,,,0.00,weatherlink.com 1.10,2013-04-26 08:19:00,
2013-04-26 03:34:00,51.6,37.0,30.25,SSE,165,6.0,14.0,59,0.00,,,0.00,weatherlink.com 1.10,2013-04-26 08:34:00,
2013-04-26 03:49:00,51.7,38.0,30.26,SSW,207,5.0,10.0,59,0.00,,,0.00,weatherlink.com 1.10,2013-04-26 08:49:00,
2013-04-26 04:04:00,51.2,38.0,30.27,SSW,197,5.0,9.0,60,0.00,,,0.00,weatherlink.com 1.10,2013-04-26 09:04:00,
2013-04-26 04:19:00,51.1,38.0,30.27,SW,224,7.0,13.0,61,0.00,,,0.00,weatherlink.com 1.10,2013-04-26 09:19:00,
2013-04-26 04:34:00,51.1,38.0,30.29,West,266,6.0,9.0,61,0.00,,,0.00,weatherlink.com 1.10,2013-04-26 09:34:00,
2013-04-26 04:49:00,51.2,38.0,30.28,WSW,244,9.0,11.0,61,0.00,,,0.00,weatherlink.com 1.10,2013-04-26 09:49:00,
2013-04-26 05:04:00,51.0,39.0,30.28,SW,232,7.0,11.0,63,0.00,,,0.00,weatherlink.com 1.10,2013-04-26 10:04:00,
2013-04-26 05:19:00,50.9,39.0,30.28,WSW,252,2.0,13.0,63,0.00,,,0.00,weatherlink.com 1.10,2013-04-26 10:19:00,
2013-04-26 05:34:00,50.8,39.0,30.27,SW,231,7.0,12.0,64,0.00,,,0.00,weatherlink.com 1.10,2013-04-26 10:34:00,
2013-04-26 05:49:00,50.9,39.0,30.27,WSW,240,10.0,13.0,64,0.00,,,0.00,weatherlink.com 1.10,2013-04-26 10:49:00,
2013-04-26 06:04:00,51.1,39.0,30.27,WSW,256,3.0,9.0,64,0.00,,,0.00,weatherlink.com 1.10,2013-04-26 11:04:00,
2013-04-26 06:19:00,51.3,39.0,30.27,WSW,249,9.0,13.0,63,0.00,,,0.00,weatherlink.com 1.10,2013-04-26 11:19:00,
2013-04-26 06:34:00,51.6,39.0,30.28,West,260,2.0,9.0,63,0.00,,,0.00,weatherlink.com 1.10,2013-04-26 11:34:00,
2013-04-26 06:49:00,51.9,40.0,30.29,West,268,1.0,8.0,63,0.00,,,0.00,weatherlink.com 1.10,2013-04-26 11:49:00,
2013-04-26 07:04:00,52.2,40.0,30.30,West,260,5.0,9.0,63,0.00,,,0.00,weatherlink.com 1.10,2013-04-26 12:04:00,
2013-04-26 07:19:00,52.1,40.0,30.30,SW,231,5.0,12.0,63,0.00,,,0.00,weatherlink.com 1.10,2013-04-26 12:19:00,
2013-04-26 07:34:00,51.8,40.0,30.30,SW,231,5.0,10.0,64,0.00,,,0.00,weatherlink.com 1.10,2013-04-26 12:34:00,
2013-04-26 07:49:00,52.4,40.0,30.31,WSW,243,7.0,12.0,63,0.00,,,0.00,weatherlink.com 1.10,2013-04-26 12:49:00,
2013-04-26 08:04:00,52.6,40.0,30.32,WNW,289,2.0,9.0,63,0.00,,,0.00,weatherlink.com 1.10,2013-04-26 13:04:00,
2013-04-26 08:19:00,52.8,40.0,30.32,WNW,295,4.0,14.0,63,0.00,,,0.00,weatherlink.com 1.10,2013-04-26 13:19:00,
2013-04-26 08:34:00,52.6,41.0,30.32,WNW,284,3.0,11.0,64,0.00,,,0.00,weatherlink.com 1.10,2013-04-26 13:34:00,
2013-04-26 08:49:00,52.6,41.0,30.32,WSW,255,5.0,11.0,66,0.00,,,0.00,weatherlink.com 1.10,2013-04-26 13:49:00,
2013-04-26 09:04:00,52.4,42.0,30.32,West,272,3.0,13.0,67,0.00,,,0.00,weatherlink.com 1.10,2013-04-26 14:04:00,
2013-04-26 09:19:00,52.4,42.0,30.33,West,263,5.0,9.0,69,0.00,,,0.00,weatherlink.com 1.10,2013-04-26 14:19:00,
2013-04-26 09:34:00,52.2,44.0,30.34,WNW,285,5.0,11.0,73,0.00,,,0.00,weatherlink.com 1.10,2013-04-26 14:34:00,
2013-04-26 09:49:00,52.4,45.0,30.34,WNW,298,5.0,14.0,75,0.00,,,0.00,weatherlink.com 1.10,2013-04-26 14:49:00,
2013-04-26 10:04:00,52.5,45.0,30.34,WNW,291,4.0,12.0,77,0.00,,,0.00,weatherlink.com 1.10,2013-04-26 15:04:00,
2013-04-26 10:19:00,52.4,46.0,30.33,WNW,287,4.0,11.0,79,0.00,,,0.00,weatherlink.com 1.10,2013-04-26 15:19:00,
2013-04-26 10:34:00,52.6,46.0,30.32,WSW,253,7.0,13.0,77,0.00,,,0.00,weatherlink.com 1.10,2013-04-26 15:34:00,
2013-04-26 10:49:00,53.2,45.0,30.34,West,264,7.0,13.0,74,0.00,,,0.00,weatherlink.com 1.10,2013-04-26 15:49:00,
2013-04-26 11:05:00,54.4,45.0,30.34,West,280,7.0,14.0,71,0.00,,,0.00,weatherlink.com 1.10,2013-04-26 16:05:00,
2013-04-26 11:20:00,55.2,45.0,30.32,NW,311,6.0,18.0,69,0.00,,,0.00,weatherlink.com 1.10,2013-04-26 16:20:00,
2013-04-26 11:35:00,55.4,45.0,30.32,NNW,327,7.0,18.0,68,0.00,,,0.00,weatherlink.com 1.10,2013-04-26 16:35:00,
2013-04-26 11:50:00,55.4,45.0,30.32,WNW,301,10.0,18.0,69,0.00,,,0.00,weatherlink.com 1.10,2013-04-26 16:50:00,
2013-04-26 12:05:00,55.0,45.0,30.32,WNW,283,11.0,18.0,68,0.00,,,0.00,weatherlink.com 1.10,2013-04-26 17:05:00,
2013-04-26 12:20:00,54.4,45.0,30.32,WNW,299,9.0,21.0,70,0.00,,,0.00,weatherlink.com 1.10,2013-04-26 17:20:00,
2013-04-26 12:35:00,53.9,45.0,30.33,WSW,249,7.0,15.0,71,0.00,,,0.00,weatherlink.com 1.10,2013-04-26 17:35:00,
2013-04-26 12:50:00,53.9,45.0,30.33,West,276,3.0,12.0,73,0.00,,,0.00,weatherlink.com 1.10,2013-04-26 17:50:00,
2013-04-26 13:05:00,54.1,46.0,30.33,WNW,298,5.0,13.0,73,0.00,,,0.00,weatherlink.com 1.10,2013-04-26 18:05:00,
2013-04-26 13:20:00,54.4,46.0,30.32,WNW,285,2.0,13.0,72,0.00,,,0.00,weatherlink.com 1.10,2013-04-26 18:20:00,
2013-04-26 13:35:00,55.0,45.0,30.32,WNW,283,4.0,13.0,70,0.00,,,0.00,weatherlink.com 1.10,2013-04-26 18:35:00,
2013-04-26 13:50:00,55.5,45.0,30.32,WSW,249,11.0,12.0,69,0.00,,,0.00,weatherlink.com 1.10,2013-04-26 18:50:00,
2013-04-26 14:05:00,55.3,45.0,30.32,WNW,285,6.0,12.0,69,0.00,,,0.00,weatherlink.com 1.10,2013-04-26 19:05:00,
2013-04-26 14:20:00,54.7,45.0,30.31,West,280,2.0,11.0,70,0.00,,,0.00,weatherlink.com 1.10,2013-04-26 19:20:00,
2013-04-26 14:35:00,54.8,46.0,30.31,WSW,252,2.0,10.0,71,0.00,,,0.00,weatherlink.com 1.10,2013-04-26 19:35:00,
2013-04-26 14:50:00,55.9,46.0,30.30,WNW,285,3.0,8.0,69,0.00,,,0.00,weatherlink.com 1.10,2013-04-26 19:50:00,
2013-04-26 15:05:00,56.8,46.0,30.28,WSW,252,5.0,8.0,68,0.00,,,0.00,weatherlink.com 1.10,2013-04-26 20:05:00,
2013-04-26 15:20:00,57.1,46.0,30.27,NW,322,3.0,12.0,66,0.00,,,0.00,weatherlink.com 1.10,2013-04-26 20:20:00,
2013-04-26 15:35:00,57.1,46.0,30.27,WNW,287,0.0,10.0,67,0.00,,,0.00,weatherlink.com 1.10,2013-04-26 20:35:00,
2013-04-26 15:50:00,57.8,46.0,30.26,West,281,2.0,12.0,64,0.00,,,0.00,weatherlink.com 1.10,2013-04-26 20:50:00,
2013-04-26 16:05:00,57.7,45.0,30.26,West,276,3.0,11.0,64,0.00,,,0.00,weatherlink.com 1.10,2013-04-26 21:05:00,
2013-04-26 16:20:00,57.7,46.0,30.25,West,270,3.0,15.0,66,0.00,,,0.00,weatherlink.com 1.10,2013-04-26 21:20:00,
2013-04-26 16:35:00,57.8,46.0,30.25,SW,218,3.0,12.0,65,0.00,,,0.00,weatherlink.com 1.10,2013-04-26 21:35:00,
2013-04-26 16:50:00,57.2,46.0,30.25,WSW,252,4.0,11.0,66,0.00,,,0.00,weatherlink.com 1.10,2013-04-26 21:50:00,
2013-04-26 17:05:00,56.6,46.0,30.25,SW,224,5.0,12.0,68,0.00,,,0.00,weatherlink.com 1.10,2013-04-26 22:05:00,
2013-04-26 17:20:00,56.1,46.0,30.26,SSW,210,8.0,11.0,69,0.00,,,0.00,weatherlink.com 1.10,2013-04-26 22:20:00,
2013-04-26 17:35:00,55.9,46.0,30.27,WSW,246,2.0,9.0,69,0.00,,,0.00,weatherlink.com 1.10,2013-04-26 22:35:00,
2013-04-26 17:50:00,56.0,46.0,30.27,SW,236,11.0,11.0,69,0.00,,,0.00,weatherlink.com 1.10,2013-04-26 22:50:00,
2013-04-26 18:05:00,55.9,46.0,30.26,SW,225,5.0,9.0,69,0.00,,,0.00,weatherlink.com 1.10,2013-04-26 23:05:00,
2013-04-26 18:20:00,55.8,45.0,30.26,WNW,283,2.0,9.0,68,0.00,,,0.00,weatherlink.com 1.10,2013-04-26 23:20:00,
2013-04-26 18:35:00,55.7,45.0,30.25,WSW,249,11.0,11.0,68,0.00,,,0.00,weatherlink.com 1.10,2013-04-26 23:35:00,
2013-04-26 18:50:00,55.4,45.0,30.23,SW,229,10.0,11.0,68,0.00,,,0.00,weatherlink.com 1.10,2013-04-26 23:50:00,
2013-04-26 19:05:00,54.7,46.0,30.25,WSW,238,7.0,13.0,72,0.00,,,0.00,weatherlink.com 1.10,2013-04-27 00:05:00,
2013-04-26 19:20:00,54.3,46.0,30.26,SW,221,6.0,9.0,73,0.00,,,0.00,weatherlink.com 1.10,2013-04-27 00:20:00,
2013-04-26 19:35:00,54.0,46.0,30.25,WSW,241,5.0,10.0,74,0.00,,,0.00,weatherlink.com 1.10,2013-04-27 00:35:00,
2013-04-26 19:50:00,53.6,46.0,30.25,SSW,203,5.0,8.0,74,0.00,,,0.00,weatherlink.com 1.10,2013-04-27 00:50:00,
2013-04-26 20:05:00,53.3,46.0,30.27,SW,228,9.0,10.0,76,0.00,,,0.00,weatherlink.com 1.10,2013-04-27 01:05:00,
2013-04-26 20:20:00,53.1,46.0,30.28,West,276,10.0,10.0,76,0.00,,,0.00,weatherlink.com 1.10,2013-04-27 01:20:00,
2013-04-26 20:35:00,53.0,45.0,30.29,WNW,283,5.0,11.0,74,0.00,,,0.00,weatherlink.com 1.10,2013-04-27 01:35:00,
2013-04-26 20:50:00,52.8,45.0,30.28,SW,235,6.0,12.0,75,0.00,,,0.00,weatherlink.com 1.10,2013-04-27 01:50:00,
2013-04-26 21:05:00,52.4,45.0,30.29,WNW,299,4.0,9.0,75,0.00,,,0.00,weatherlink.com 1.10,2013-04-27 02:05:00,
2013-04-26 21:20:00,52.0,45.0,30.30,WNW,295,2.0,4.0,76,0.00,,,0.00,weatherlink.com 1.10,2013-04-27 02:20:00,
2013-04-26 21:37:00,51.7,45.0,30.29,West,273,5.0,7.0,77,0.00,,,0.00,weatherlink.com 1.10,2013-04-27 02:37:00,
2013-04-26 21:50:00,51.5,45.0,30.29,SW,236,7.0,9.0,77,0.00,,,0.00,weatherlink.com 1.10,2013-04-27 02:50:00,
2013-04-26 22:05:00,51.3,45.0,30.29,WNW,285,3.0,4.0,78,0.00,,,0.00,weatherlink.com 1.10,2013-04-27 03:05:00,
2013-04-26 22:20:00,51.1,44.0,30.30,West,272,2.0,5.0,78,0.00,,,0.00,weatherlink.com 1.10,2013-04-27 03:20:00,
2013-04-26 22:35:00,51.0,44.0,30.29,WNW,293,2.0,4.0,78,0.00,,,0.00,weatherlink.com 1.10,2013-04-27 03:35:00,
2013-04-26 22:53:00,50.7,44.0,30.29,West,266,1.0,5.0,79,0.00,,,0.00,weatherlink.com 1.10,2013-04-27 03:53:00,
2013-04-26 23:05:00,50.5,45.0,30.28,WSW,237,4.0,4.0,80,0.00,,,0.00,weatherlink.com 1.10,2013-04-27 04:05:00,
2013-04-26 23:20:00,50.3,44.0,30.27,WSW,243,1.0,4.0,79,0.00,,,0.00,weatherlink.com 1.10,2013-04-27 04:20:00,
2013-04-26 23:36:00,50.2,44.0,30.27,WSW,240,1.0,3.0,79,0.00,,,0.00,weatherlink.com 1.10,2013-04-27 04:36:00,
2013-04-26 23:51:00,50.0,44.0,30.26,SW,219,4.0,6.0,80,0.00,,,0.00,weatherlink.com 1.10,2013-04-27 04:51:00,